Weather History for Lincolnton, NC

Change the Weather History Date:

Wednesday, November 21, 2012

  Actual Average (KCLT) Record (KCLT)
Temperature  
Mean Temperature 47 °F 49 °F  
Max Temperature 62 °F 61 °F 78 °F (1942)
Min Temperature 32 °F 38 °F 19 °F (1914)
Degree Days  
Heating Degree Days 18 16  
Month to date heating degree days 272  
Since 1 July heating degree days 478  
Cooling Degree Days 0 0  
Month to date cooling degree days 0  
Year to date cooling degree days 1513  
Moisture  
Dew Point 33 °F    
Average Humidity 73    
Maximum Humidity 100    
Minimum Humidity 24    
Precipitation  
Precipitation 0.00 in 0.11 in 3.26 in (1985)
Month to date precipitation 2.15  
Year to date precipitation 37.39  
Snow  
Snow 0.00 in 0.00 in T in (2006)
Month to date snowfall 0.1  
Since 1 July snowfall 0.1  
Since 1 September snowfall 0.1  
Snow Depth -    
Sea Level Pressure  
Sea Level Pressure 30.14 in    
Wind  
Wind Speed 1 mph (NNW)    
Max Wind Speed 8 mph    
Max Gust Speed -    
Visibility 8 miles    
Events      
T = Trace of Precipitation, MM = Missing Value Source: NWS Daily Summary

Daily Weather History Graph

Daily Weather History Graph

Search for Another Location

Airport:

Trip Planner

Search our weather history database for the weather conditions in past years. The results will help you decide how hot, cold, wet, or windy it might be!

Date:

Astronomy

Nov. 21, 2012 Rise Set
Actual Time 7:06 AM EST 5:14 PM EST
Civil Twilight 6:39 AM EST 5:42 PM EST
Nautical Twilight 6:07 AM EST 6:13 PM EST
Astronomical Twilight 5:37 AM EST 6:43 PM EST
Moon 1:18 PM EST (11/21) 12:37 AM EST (11/21)
Length of Visible Light 11h 03m
Length of Day
10h 08m
First Quarter, 61% of the Moon is Illuminated
Nov 21
First Quarter
Nov 28
Full
Dec 6
Last Quarter
Dec 13
New
Dec 20
First Quarter

Hourly Weather History & Observations

Time (EST) Temp. Windchill Dew Point Humidity Pressure Visibility Wind Dir Wind Speed Gust Speed Precip Events Conditions
12:15 AM 33.8 °F - 33.8 °F 100% 30.11 in 7.0 mi Calm Calm - N/A   Clear
12:35 AM 33.8 °F - 33.8 °F 100% 30.10 in 7.0 mi Calm Calm - N/A   Clear
12:55 AM 33.8 °F - 33.8 °F 100% 30.10 in 7.0 mi Calm Calm - N/A   Clear
1:15 AM 33.8 °F - 33.8 °F 100% 30.09 in 7.0 mi Calm Calm - N/A   Clear
1:35 AM 33.8 °F - 33.8 °F 100% 30.09 in 7.0 mi Calm Calm - N/A   Clear
1:55 AM 32.0 °F - 32.0 °F 100% 30.09 in 7.0 mi Calm Calm - N/A   Clear
2:15 AM 32.0 °F - 32.0 °F 100% 30.09 in 7.0 mi Calm Calm - N/A   Clear
2:35 AM 32.0 °F - 32.0 °F 100% 30.10 in 5.0 mi Calm Calm - N/A   Clear
2:55 AM 32.0 °F - 32.0 °F 100% 30.10 in 7.0 mi Calm Calm - N/A   Clear
3:15 AM 32.0 °F - 32.0 °F 100% 30.10 in 7.0 mi Calm Calm - N/A   Clear
3:35 AM 32.0 °F - 32.0 °F 100% 30.10 in 7.0 mi Calm Calm - N/A   Clear
3:55 AM 32.0 °F - 32.0 °F 100% 30.10 in 5.0 mi Calm Calm - N/A   Clear
4:15 AM 32.0 °F - 32.0 °F 100% 30.11 in 7.0 mi Calm Calm - N/A   Clear
4:35 AM 32.0 °F - 32.0 °F 100% 30.11 in 7.0 mi Calm Calm - N/A   Clear
4:55 AM 32.0 °F - 32.0 °F 100% 30.12 in 7.0 mi Calm Calm - N/A   Clear
5:15 AM 32.0 °F - 32.0 °F 100% 30.12 in 7.0 mi Calm Calm - N/A   Clear
5:35 AM 32.0 °F - 32.0 °F 100% 30.12 in 5.0 mi Calm Calm - N/A   Clear
5:55 AM 32.0 °F - 32.0 °F 100% 30.13 in 5.0 mi Calm Calm - N/A   Clear
6:15 AM 32.0 °F - 32.0 °F 100% 30.13 in 7.0 mi Calm Calm - N/A   Clear
6:35 AM 32.0 °F - 32.0 °F 100% 30.14 in 5.0 mi Calm Calm - N/A   Clear
6:55 AM 32.0 °F - 32.0 °F 100% 30.14 in 5.0 mi Calm Calm - N/A   Clear
7:15 AM 32.0 °F - 32.0 °F 100% 30.15 in 3.0 mi Calm Calm - N/A   Clear
7:35 AM 32.0 °F - 32.0 °F 100% 30.16 in 3.0 mi Calm Calm - N/A   Clear
7:55 AM 32.0 °F - 32.0 °F 100% 30.16 in 4.0 mi Calm Calm - N/A   Clear
8:15 AM 33.8 °F - 33.8 °F 100% 30.16 in 2.5 mi Calm Calm - N/A   Clear
8:35 AM 37.4 °F - 37.4 °F 100% 30.17 in 4.0 mi Calm Calm - N/A   Clear
8:55 AM 42.8 °F - 41.0 °F 93% 30.18 in 7.0 mi Calm Calm - N/A   Clear
9:15 AM 44.6 °F 43.1 °F 41.0 °F 87% 30.18 in 10.0 mi WNW 3.5 mph - N/A   Clear
9:35 AM 46.4 °F - 41.0 °F 81% 30.18 in 10.0 mi Calm Calm - N/A   Clear
9:55 AM 48.2 °F - 41.0 °F 76% 30.18 in 10.0 mi NNW 4.6 mph - N/A   Clear
10:15 AM 50.0 °F - 41.0 °F 71% 30.18 in 10.0 mi WNW 3.5 mph - N/A   Clear
10:35 AM 51.8 °F - 41.0 °F 67% 30.18 in 10.0 mi Calm Calm - N/A   Clear
10:55 AM 53.6 °F - 41.0 °F 62% 30.18 in 10.0 mi WNW 3.5 mph - N/A   Clear
11:15 AM 55.4 °F - 39.2 °F 54% 30.17 in 10.0 mi Calm Calm - N/A   Clear
11:35 AM 59.0 °F - 37.4 °F 45% 30.16 in 10.0 mi Calm Calm - N/A   Clear
11:55 AM 59.0 °F - 37.4 °F 45% 30.16 in 10.0 mi NW 3.5 mph - N/A   Clear
12:15 PM 60.8 °F - 32.0 °F 34% 30.15 in 10.0 mi North 8.1 mph - N/A   Clear
12:35 PM 60.8 °F - 32.0 °F 34% 30.14 in 10.0 mi NW 5.8 mph - N/A   Clear
12:55 PM 62.6 °F - 32.0 °F 32% 30.14 in 10.0 mi NNW 5.8 mph - N/A   Clear
1:15 PM 60.8 °F - 30.2 °F 31% 30.13 in 10.0 mi NW 4.6 mph - N/A   Clear
1:35 PM 62.6 °F - 32.0 °F 32% 30.13 in 10.0 mi Calm Calm - N/A   Clear
1:55 PM 62.6 °F - 28.4 °F 27% 30.13 in 10.0 mi North 6.9 mph - N/A   Clear
2:15 PM 62.6 °F - 26.6 °F 26% 30.13 in 10.0 mi NW 6.9 mph - N/A   Clear
2:35 PM 62.6 °F - 28.4 °F 27% 30.12 in 10.0 mi NW 4.6 mph - N/A   Clear
2:55 PM 62.6 °F - 26.6 °F 26% 30.12 in 10.0 mi NW 3.5 mph - N/A   Clear
3:15 PM 62.6 °F - 26.6 °F 26% 30.11 in 10.0 mi Calm Calm - N/A   Clear
3:35 PM 62.6 °F - 24.8 °F 24% 30.11 in 10.0 mi North 3.5 mph - N/A   Clear
3:55 PM 62.6 °F - 28.4 °F 27% 30.11 in 10.0 mi ENE 3.5 mph - N/A   Clear
4:15 PM 62.6 °F - 28.4 °F 27% 30.12 in 10.0 mi NNE 3.5 mph - N/A   Clear
4:35 PM 60.8 °F - 28.4 °F 29% 30.13 in 10.0 mi North 3.5 mph - N/A   Clear
4:55 PM 59.0 °F - 28.4 °F 31% 30.13 in 10.0 mi Calm Calm - N/A   Clear
5:15 PM 55.4 °F - 28.4 °F 36% 30.13 in 10.0 mi Calm Calm - N/A   Clear
5:35 PM 50.0 °F - 30.2 °F 47% 30.13 in 10.0 mi Calm Calm - N/A   Clear
5:55 PM 50.0 °F - 32.0 °F 50% 30.13 in 10.0 mi Calm Calm - N/A   Clear
6:15 PM 46.4 °F - 32.0 °F 57% 30.14 in 10.0 mi Calm Calm - N/A   Clear
6:35 PM 42.8 °F 40.1 °F 32.0 °F 66% 30.15 in 10.0 mi WSW 4.6 mph - N/A   Clear
6:55 PM 44.6 °F - 32.0 °F 61% 30.15 in 10.0 mi Calm Calm - N/A   Clear
7:15 PM 42.8 °F - 32.0 °F 66% 30.15 in 10.0 mi Calm Calm - N/A   Clear
7:35 PM 42.8 °F - 32.0 °F 66% 30.16 in 10.0 mi Calm Calm - N/A   Clear
7:55 PM 41.0 °F - 32.0 °F 70% 30.16 in 10.0 mi Calm Calm - N/A   Clear
8:15 PM 39.2 °F - 32.0 °F 75% 30.17 in 10.0 mi Calm Calm - N/A   Clear
8:35 PM 39.2 °F - 32.0 °F 75% 30.17 in 10.0 mi Calm Calm - N/A   Clear
8:55 PM 35.6 °F - 32.0 °F 87% 30.17 in 10.0 mi Calm Calm - N/A   Clear
9:15 PM 35.6 °F - 32.0 °F 87% 30.18 in 10.0 mi Calm Calm - N/A   Clear
9:35 PM 37.4 °F - 32.0 °F 81% 30.18 in 10.0 mi Calm Calm - N/A   Clear
9:55 PM 33.8 °F - 32.0 °F 93% 30.18 in 10.0 mi Calm Calm - N/A   Clear
10:15 PM 35.6 °F - 32.0 °F 87% 30.18 in 10.0 mi Calm Calm - N/A   Clear
10:35 PM 33.8 °F - 32.0 °F 93% 30.18 in 10.0 mi Calm Calm - N/A   Clear
10:55 PM 33.8 °F - 32.0 °F 93% 30.18 in 10.0 mi Calm Calm - N/A   Clear
11:15 PM 33.8 °F - 32.0 °F 93% 30.19 in 10.0 mi Calm Calm - N/A   Clear
11:35 PM 33.8 °F - 32.0 °F 93% 30.19 in 10.0 mi Calm Calm - N/A   Clear
11:55 PM 33.8 °F - 32.0 °F 93% 30.19 in 10.0 mi Calm Calm - N/A   Clear